Tracking 18957 objects as of 23-Jan-2018
HD Live streaming from Space Station
objects crossing your sky now

ORBCOMM FM 20

Track ORBCOMM FM 20 now!
10-day predictions
ORBCOMM FM 20 is classified as:


NORAD ID: 25416
Int'l Code: 1998-046D
Perigee: 788.5 km
Apogee: 791.7 km
Inclination: 45.0 °
Period: 100.5 minutes
Semi major axis: 7161 km
RCS: 0.613 m2 (medium)
Launch date: August 2, 1998
Source: ORBCOMM (ORB)
Launch site: Pegasus launched from Eastern Range Air Space (ERAS)
aabbcc
Your satellite tracking list
Your tracking list is empty




NASA's NSSDC Master Catalog

Two Line Element Set (TLE):
1 25416U 98046D   18022.88086559 -.00000281 +00000-0 -51348-4 0  9995
2 25416 044.9982 306.8096 0002255 334.1436 056.2288 14.32633638016474
Source of the keplerian elements: AFSPC